Mullan Pass, ID

8:15 AM PDT on May 25, 2017 (GMT -0700)
Mullan Pass

Weather History for KMLP - February, 2014

Change the Weather History Date:

Wednesday, February 19, 2014

  Actual Average (K3TH) Record (K3TH)
Temperature  
Mean Temperature 18 °F -  
Max Temperature 21 °F 37 °F 51 °F (1998)
Min Temperature 15 °F 26 °F 21 °F (2001)
Degree Days  
Heating Degree Days 47    
Moisture  
Dew Point 15 °F    
Average Humidity 91    
Maximum Humidity 100    
Minimum Humidity 79    
Precipitation  
Precipitation 0.35 in - - ()
Sea Level Pressure  
Sea Level Pressure 29.73 in    
Wind  
Wind Speed 10 mph (West)    
Max Wind Speed 16 mph    
Max Gust Speed 33 mph    
Visibility 3 miles    
Events Fog , Rain , Snow    
Averages and records for this station are not official NWS values.
T = Trace of Precipitation, MM = Missing Value Source: NWS Daily Summary

Daily Weather History Graph

Daily Weather History Graph

Search for Another Location

Airport or City:

Trip Planner

Search our weather history database for the weather conditions in past years. The results will help you decide how hot, cold, wet, or windy it might be!

Date:

Astronomy

Feb. 19, 2014 Rise Set
Actual Time 6:41 AM PST 5:12 PM PST
Civil Twilight 6:09 AM PST 5:44 PM PST
Nautical Twilight 5:34 AM PST 6:19 PM PST
Astronomical Twilight 4:58 AM PST 6:55 PM PST
Moon 10:34 PM PST (2/19) 8:28 AM PST (2/19)
Length of Visible Light 11h 34m
Length of Day
10h 31m
Waning Gibbous, 79% of the Moon is Illuminated
Feb 19
Waning Gibbous
Feb 22
Last Quarter
Mar 1
New
Mar 8
First Quarter
Mar 16
Full

Hourly Weather History & Observations

Time (PST) Temp. Windchill Dew Point Humidity Pressure Visibility Wind Dir Wind Speed Gust Speed Precip Events Conditions
12:00 AM 21.2 °F 8.3 °F 17.6 °F 86% 29.52 in 1.2 mi West 13.8 mph 33.4 mph 0.00 in Snow Light Snow
12:21 AM 21.2 °F 10.9 °F 17.6 °F 86% 29.53 in 2.5 mi West 9.2 mph 24.2 mph 0.02 in Snow Light Snow
12:28 AM 19.4 °F 5.0 °F 15.8 °F 86% 29.53 in 8.0 mi WSW 16.1 mph 26.5 mph 0.02 in Snow Light Snow
12:51 AM 19.4 °F 6.6 °F 15.8 °F 86% 29.54 in 2.5 mi West 12.7 mph 25.3 mph 0.02 in Snow Light Snow
12:53 AM 19.9 °F 8.6 °F 16.0 °F 85% 29.66 in 2.5 mi West 10.4 mph 25.3 mph 0.02 in Snow Light Snow
1:11 AM 19.4 °F 6.6 °F 15.8 °F 86% 29.54 in 1.5 mi WSW 12.7 mph 33.4 mph 0.01 in Snow Light Snow
1:17 AM 19.4 °F 5.5 °F 15.8 °F 86% 29.54 in 2.5 mi WSW 15.0 mph 32.2 mph 0.01 in Snow Light Snow
1:24 AM 19.4 °F 7.2 °F 15.8 °F 86% 29.55 in 2.0 mi WSW 11.5 mph 32.2 mph 0.01 in Snow Light Snow
1:33 AM 19.4 °F 9.5 °F 15.8 °F 86% 29.55 in 3.0 mi West 8.1 mph 31.1 mph 0.01 in Snow Light Snow
1:41 AM 17.6 °F 6.4 °F 15.8 °F 93% 29.56 in 1.8 mi West 9.2 mph 23.0 mph 0.01 in Snow Light Snow
1:50 AM 17.6 °F 6.4 °F 15.8 °F 93% 29.56 in 3.0 mi WSW 9.2 mph 19.6 mph 0.01 in Snow Light Snow
1:53 AM 18.0 °F 9.8 °F 15.1 °F 88% 29.69 in 6.0 mi Variable 5.8 mph 19.6 mph 0.01 in Snow Light Snow
3:09 AM 17.6 °F 3.7 °F 14.0 °F 86% 29.57 in 2.0 mi WSW 13.8 mph 32.2 mph 0.01 in Snow Light Snow
3:16 AM 17.6 °F 3.2 °F 14.0 °F 86% 29.58 in 3.0 mi WSW 15.0 mph 32.2 mph 0.01 in Snow Light Snow
3:24 AM 17.6 °F 4.3 °F 15.8 °F 93% 29.58 in 2.5 mi West 12.7 mph 29.9 mph 0.01 in Snow Light Snow
3:53 AM 17.1 °F 6.6 °F 15.1 °F 92% 29.74 in 2.5 mi WSW 8.1 mph - 0.01 in Snow Light Snow
4:16 AM 17.6 °F 4.3 °F 15.8 °F 93% 29.60 in 5.0 mi WSW 12.7 mph 21.9 mph 0.00 in Snow Light Snow
4:28 AM 17.6 °F 8.2 °F 14.0 °F 86% 29.61 in 6.0 mi SW 6.9 mph 26.5 mph 0.00 in Snow Light Snow
4:53 AM 17.1 °F 5.0 °F 14.0 °F 88% 29.76 in 4.0 mi SW 10.4 mph 23.0 mph 0.00 in Snow Light Snow
5:31 AM 15.8 °F 2.7 °F 14.0 °F 93% 29.62 in 7.0 mi WSW 11.5 mph 24.2 mph 0.00 in   Overcast
5:50 AM 15.8 °F 6.1 °F 15.8 °F 100% 29.64 in 8.0 mi Variable 6.9 mph - 0.00 in Snow Light Snow
5:53 AM 16.0 °F 4.4 °F 14.0 °F 92% 29.78 in 8.0 mi West 9.2 mph 20.7 mph 0.01 in Snow Light Snow
6:04 AM 15.8 °F 4.2 °F 14.0 °F 93% 29.64 in 6.0 mi WSW 9.2 mph 18.4 mph 0.00 in   Overcast
6:14 AM 15.8 °F 3.4 °F 14.0 °F 93% 29.64 in 5.0 mi West 10.4 mph 21.9 mph 0.00 in Rain Light Freezing Rain
6:22 AM 15.8 °F 6.1 °F 14.0 °F 93% 29.64 in 3.0 mi Variable 6.9 mph - 0.00 in Snow Light Snow
6:30 AM 15.8 °F 8.6 °F 14.0 °F 93% 29.64 in 2.5 mi Variable 4.6 mph 20.7 mph 0.00 in Snow Light Snow
6:33 AM 15.8 °F 7.2 °F 14.0 °F 93% 29.64 in 3.0 mi Variable 5.8 mph 20.7 mph 0.00 in Snow Light Snow
6:39 AM 15.8 °F 4.2 °F 14.0 °F 93% 29.64 in 4.0 mi WSW 9.2 mph 18.4 mph 0.00 in Snow Light Snow
6:53 AM 16.0 °F 8.8 °F 14.0 °F 92% 29.78 in 2.0 mi Variable 4.6 mph 25.3 mph 0.00 in Snow Light Snow
7:14 AM 15.8 °F 2.1 °F 14.0 °F 93% 29.64 in 1.8 mi WSW 12.7 mph 28.8 mph 0.00 in Snow Light Snow
7:19 AM 15.8 °F 3.4 °F 14.0 °F 93% 29.64 in 1.2 mi WSW 10.4 mph 28.8 mph 0.00 in Snow Light Snow
7:27 AM 15.8 °F 2.1 °F 14.0 °F 93% 29.64 in 1.2 mi WSW 12.7 mph 26.5 mph 0.00 in Snow Light Snow
7:36 AM 15.8 °F 6.1 °F 15.8 °F 100% 29.64 in 1.8 mi Variable 6.9 mph 19.6 mph 0.00 in Snow Light Snow
7:43 AM 17.6 °F 5.7 °F 15.8 °F 93% 29.64 in 1.8 mi WSW 10.4 mph 24.2 mph 0.00 in Snow Light Snow
7:47 AM 17.6 °F 5.0 °F 15.8 °F 93% 29.64 in 0.8 mi West 11.5 mph 24.2 mph 0.00 in Snow Light Snow
7:53 AM 17.1 °F 7.6 °F 15.1 °F 92% 29.78 in 0.5 mi Variable 6.9 mph 24.2 mph 0.00 in Fog , Snow Light Snow
8:14 AM 17.6 °F 5.7 °F 15.8 °F 93% 29.64 in 1.2 mi West 10.4 mph 20.7 mph 0.00 in Snow Light Snow
8:24 AM 17.6 °F 6.4 °F 15.8 °F 93% 29.64 in 1.5 mi West 9.2 mph 25.3 mph 0.00 in Snow Light Snow
8:41 AM 17.6 °F 8.2 °F 15.8 °F 93% 29.64 in 0.8 mi Variable 6.9 mph 20.7 mph 0.00 in Snow Light Snow
8:53 AM 18.0 °F 11.1 °F 15.1 °F 88% 29.77 in 0.5 mi Variable 4.6 mph - 0.00 in Fog , Snow Light Snow
9:03 AM 17.6 °F 9.3 °F 15.8 °F 93% 29.65 in 0.2 mi Variable 5.8 mph - 0.01 in Fog , Snow Snow
9:34 AM 19.4 °F 10.4 °F 17.6 °F 93% 29.66 in 0.5 mi Variable 6.9 mph - 0.03 in Fog , Snow Snow
9:53 AM 19.0 °F - 17.1 °F 92% 29.79 in 0.5 mi Calm Calm - 0.03 in Fog , Snow Light Snow
10:00 AM 19.4 °F 11.5 °F 17.6 °F 93% 29.66 in 0.2 mi Variable 5.8 mph - 0.00 in Fog , Snow Snow
10:53 AM 19.0 °F 10.0 °F 17.1 °F 92% 29.82 in 0.2 mi Variable 6.9 mph - 0.03 in Fog , Snow Snow
11:53 AM 18.0 °F 7.7 °F 17.1 °F 96% 29.85 in 0.2 mi NW 8.1 mph - 0.08 in Fog , Snow Snow
12:51 PM 19.4 °F 7.2 °F 17.6 °F 93% 29.70 in 0.5 mi NW 11.5 mph 19.6 mph 0.04 in Fog , Snow Light Snow
12:53 PM 19.0 °F 8.2 °F 17.1 °F 92% 29.86 in 0.5 mi NW 9.2 mph 19.6 mph 0.04 in Fog , Snow Light Snow
1:08 PM 19.4 °F 11.5 °F 17.6 °F 93% 29.70 in 1.5 mi Variable 5.8 mph 20.7 mph 0.00 in   Overcast
1:18 PM 19.4 °F 9.5 °F 17.6 °F 93% 29.70 in 0.8 mi NW 8.1 mph 17.3 mph 0.00 in Snow Light Snow
1:29 PM 17.6 °F 8.2 °F 17.6 °F 100% 29.70 in 0.2 mi Variable 6.9 mph - 0.00 in Fog , Snow Snow
1:53 PM 19.0 °F 9.0 °F 18.0 °F 96% 29.88 in 0.2 mi WNW 8.1 mph 18.4 mph 0.03 in Fog , Snow Snow
2:07 PM 17.6 °F 5.7 °F 15.8 °F 93% 29.71 in 1.0 mi NW 10.4 mph 21.9 mph 0.00 in Snow Light Snow
2:11 PM 17.6 °F 6.4 °F 15.8 °F 93% 29.71 in 2.0 mi NW 9.2 mph 21.9 mph 0.00 in Snow Light Snow
2:19 PM 19.4 °F 9.5 °F 17.6 °F 93% 29.72 in 1.8 mi NW 8.1 mph 18.4 mph 0.00 in Snow Light Snow
2:23 PM 17.6 °F 7.3 °F 17.6 °F 100% 29.72 in 0.8 mi NW 8.1 mph - 0.00 in Snow Light Snow
2:45 PM 17.6 °F 10.7 °F 17.6 °F 100% 29.72 in 0.2 mi NNW 4.6 mph - 0.01 in Fog , Snow Snow
2:53 PM 18.0 °F 9.8 °F 16.0 °F 92% 29.91 in 0.2 mi Variable 5.8 mph - 0.02 in Fog , Snow Snow
3:24 PM 17.6 °F 8.2 °F 15.8 °F 93% 29.74 in 0.5 mi Variable 6.9 mph - 0.03 in Fog , Snow Light Snow
3:29 PM 17.6 °F 7.3 °F 15.8 °F 93% 29.74 in 1.0 mi WNW 8.1 mph - 0.03 in Snow Light Snow
3:37 PM 17.6 °F 9.3 °F 15.8 °F 93% 29.74 in 0.2 mi Variable 5.8 mph - 0.03 in Fog , Snow Snow
3:53 PM 18.0 °F 6.1 °F 16.0 °F 92% 29.93 in 0.2 mi NW 10.4 mph 18.4 mph 0.04 in Fog , Snow Heavy Snow
4:05 PM 17.6 °F 5.7 °F 15.8 °F 93% 29.75 in 1.0 mi NW 10.4 mph 18.4 mph 0.00 in Snow Light Snow
4:13 PM 17.6 °F 7.3 °F 17.6 °F 100% 29.75 in 0.5 mi NW 8.1 mph 19.6 mph 0.00 in Fog , Snow Light Snow
4:21 PM 17.6 °F 7.3 °F 15.8 °F 93% 29.75 in 1.2 mi NW 8.1 mph - 0.00 in Snow Light Snow
4:28 PM 17.6 °F 6.4 °F 15.8 °F 93% 29.75 in 1.5 mi WNW 9.2 mph 17.3 mph 0.00 in Snow Light Snow
4:36 PM 17.6 °F 7.3 °F 15.8 °F 93% 29.75 in 1.0 mi West 8.1 mph - 0.00 in Snow Light Snow
4:40 PM 17.6 °F 8.2 °F 15.8 °F 93% 29.75 in 1.5 mi Variable 6.9 mph - 0.00 in Snow Light Snow
4:42 PM 17.6 °F 9.3 °F 15.8 °F 93% 29.75 in 3.0 mi Variable 5.8 mph - 0.00 in Snow Light Snow
4:49 PM 17.6 °F 9.3 °F 15.8 °F 93% 29.76 in 1.5 mi Variable 5.8 mph - 0.00 in Snow Light Snow
4:51 PM 17.6 °F 8.2 °F 15.8 °F 93% 29.76 in 0.8 mi NNW 6.9 mph - 0.01 in Snow Light Snow
4:53 PM 18.0 °F 7.7 °F 16.0 °F 92% 29.94 in 0.5 mi NW 8.1 mph - 0.02 in Fog , Snow Snow
5:02 PM 17.6 °F 5.7 °F 15.8 °F 93% 29.76 in 0.8 mi NW 10.4 mph 18.4 mph 0.01 in Snow Light Snow
5:10 PM 17.6 °F 10.7 °F 15.8 °F 93% 29.77 in 0.5 mi Variable 4.6 mph 18.4 mph 0.01 in Fog , Snow Snow
5:23 PM 17.6 °F 9.3 °F 17.6 °F 100% 29.78 in 1.5 mi Variable 5.8 mph - 0.01 in Snow Light Snow
5:35 PM 17.6 °F 12.3 °F 15.8 °F 93% 29.78 in 4.0 mi Variable 3.5 mph - 0.01 in Snow Light Snow
5:44 PM 17.6 °F 10.7 °F 14.0 °F 86% 29.78 in 8.0 mi Variable 4.6 mph - 0.01 in Snow Light Snow
5:51 PM 17.6 °F 5.7 °F 14.0 °F 86% 29.79 in 9.0 mi WNW 10.4 mph 20.7 mph 0.01 in Snow Light Snow
5:53 PM 17.1 °F 7.6 °F 14.0 °F 88% 29.98 in 9.0 mi Variable 6.9 mph 20.7 mph 0.01 in Snow Light Snow
6:06 PM 17.6 °F 6.4 °F 12.2 °F 79% 29.79 in 9.0 mi WNW 9.2 mph 25.3 mph 0.00 in Rain Light Freezing Rain
6:24 PM 17.6 °F 6.4 °F 12.2 °F 79% 29.80 in 6.0 mi WNW 9.2 mph 27.6 mph 0.00 in   Overcast
6:53 PM 17.1 °F 5.8 °F 12.9 °F 84% 30.01 in 5.0 mi WNW 9.2 mph 24.2 mph 0.00 in Snow Light Snow
7:02 PM 17.6 °F 6.4 °F 12.2 °F 79% 29.82 in 9.0 mi WNW 9.2 mph 21.9 mph 0.00 in   Overcast
7:09 PM 17.6 °F 7.3 °F 12.2 °F 79% 29.82 in 10.0 mi WNW 8.1 mph 17.3 mph 0.00 in   Overcast
7:53 PM 17.1 °F 4.3 °F 12.9 °F 84% 30.03 in 10.0 mi WNW 11.5 mph 18.4 mph 0.00 in   Overcast
8:53 PM 17.1 °F 5.8 °F 12.9 °F 84% 30.05 in 9.0 mi WNW 9.2 mph 18.4 mph 0.00 in   Overcast
9:01 PM 17.6 °F 6.4 °F 14.0 °F 86% 29.86 in 10.0 mi WNW 9.2 mph - N/A   Overcast
9:53 PM 17.1 °F 7.6 °F 12.9 °F 84% 30.06 in 10.0 mi Variable 6.9 mph - N/A   Overcast
10:39 PM 15.8 °F 8.6 °F 12.2 °F 86% 29.89 in 10.0 mi Variable 4.6 mph - N/A   Overcast
10:51 PM 15.8 °F 8.6 °F 12.2 °F 86% 29.89 in 10.0 mi Variable 4.6 mph - N/A   Overcast
10:53 PM 16.0 °F 10.4 °F 12.9 °F 88% 30.08 in 10.0 mi Variable 3.5 mph - N/A   Overcast
11:07 PM 15.8 °F 7.2 °F 12.2 °F 86% 29.89 in 10.0 mi Variable 5.8 mph - N/A   Overcast
11:53 PM 16.0 °F 8.8 °F 14.0 °F 92% 30.10 in 10.0 mi Variable 4.6 mph - N/A   Overcast